Starlink 4077

operational
NORAD ID: 53154 Int'l Des: 2022-083 Owner: SPXS Country: US Constellation: starlink
LEOCIRCULAR

Über Starlink 4077

Beschreibung wird geladen...

Live-Position

3D-Globus wird geladen...

Nächste Überflüge

Höhenverlauf

Altitude vs Time

uPlot chart will show altitude changes over time

Zweizeiliger Elementsatz

1 53154U 22083Y 26095.23418110 .00000129 00000-0 26226-4 0 9999
2 53154 53.2189 44.9573 0001544 109.3082 250.8077 15.08836928205362
Epoch: 5. Apr. 2026 • Age: 8 hours

Aktueller Status

Höhe 543.3 km
Geschwindigkeit 7.60 km/s
Subsatellitenpunkt 42.55°N, 45.25°E
Startdatum 17. Juli 2022
Alter 3.7 years
Typ internet

Technische Details

Klassifizierung Payload
Masse 297.00 kg
Trockenmasse 275.00 kg
Gesamtmasse 297.00 kg
Länge 0.20 m
Durchmesser 2.80 m
Spannweite 9.00 m
Form Box + pan
Hersteller SPXS
Bus-Typ Starlink
Phasenstatus In Orbit
Besitzer/Staat SPXS/US

Große Konstellationen

Loading constellations...